Location: Cold Norton
(51.6667°N, 0.6667°E)
Time: 06:27:51
(UTC+00:00)

Cosmos 1634 Rocket - Pass Details

Date: 18 November 2025
Orbit: 958 x 992 km, 82.9° (Epoch: 12 December)

Event Time Altitude Azimuth Distance (km) Brightness Sun altitude
Rises 19:27:29 0° 194° (SSW) 3,680 7.1 -31.3°
Reaches altitude 10° 19:30:00 10° 197° (SSW) 2,731 6.4 -31.7°
Enters shadow 19:34:53 55° 218° (SW) 1,169 4.4 -32.4°
Exits shadow 19:42:25 10° 7° (N) 2,692 6.3 -33.6°
Drops below altitude 10° 19:42:35 10° 7° (N) 2,752 6.4 -33.6°
Sets 19:45:02 0° 10° (N) 3,672 7.0 -34.0°
